1485205200.77,29507,10.56,73478.5,-9.19,-40.47,-40.53,0,*5D
1485205202.01,29508,10.56,73478.5,-9.19,-40.85,-41.03,0,*58
1485205203.25,29509,10.56,73480.3,-9.19,-41.11,-41.23,0,*57
1485205204.5,29510,10.56,73480.3,-9.19,-41.11,-41.23,0,*5F
1485205205.71,29511,10.56,73480.8,-9.19,-41.29,-41.29,0,*5F
1485205206.98,29512,10.56,73482.5,-9.21,-41.23,-41.41,0,*53
1485205208.22,29513,10.56,73478.3,-9.21,-41.03,-41.11,0,*55
1485205209.44,29514,10.56,73480.5,-9.19,-41.41,-41.29,0,*54
1485205210.67,29515,10.56,73478.0,-9.21,-40.53,-40.65,0,*55
1485205211.88,29516,10.56,73482.0,-9.19,-40.53,-40.53,0,*58
1485205213.13,29517,10.56,73480.8,-9.19,-40.41,-40.53,0,*5A
1485205214.34,29518,10.56,73482.3,-9.19,-40.53,-40.73,0,*54
1485205215.56,29519,10.56,73482.3,-9.19,-41.11,-41.03,0,*54
1485205216.78,29520,10.56,73478.8,-9.19,-40.91,-41.11,0,*54
1485205218.06,29521,10.56,73478.3,-9.17,-40.59,-40.79,0,*50
1485205219.33,29522,10.56,73480.3,-9.17,-40.47,-40.59,0,*5E
1485205220.62,29523,10.56,73476.0,-9.15,-40.79,-40.97,0,*52
1485205221.89,29524,10.56,73482.0,-9.15,-40.97,-41.03,0,*59
1485205223.16,29525,10.56,73480.8,-9.17,-40.85,-41.03,0,*59
1485205224.42,29526,10.56,73478.5,-9.17,-40.47,-40.79,0,*58
1485205225.72,29527,10.56,73480.8,-9.17,-40.85,-40.97,0,*57
1485205226.98,29528,10.56,73476.8,-9.17,-40.47,-40.79,0,*56
1485205228.23,29529,10.56,73478.0,-9.15,-40.65,-40.59,0,*57
1485205229.48,29530,10.56,73482.5,-9.15,-41.03,-41.17,0,*55
1485205230.77,29531,10.56,73478.5,-9.17,-41.23,-41.35,0,*54
1485205232.04,29532,10.56,73480.5,-9.15,-41.17,-41.23,0,*55
1485205233.31,29533,10.56,73478.0,-9.15,-41.03,-41.23,0,*51
1485205234.6,29534,10.56,73476.3,-9.15,-41.23,-41.35,0,*53
1485205235.84,29535,10.56,73480.8,-9.17,-41.41,-41.61,0,*55
1485205237.08,29536,10.56,73480.0,-9.15,-41.41,-41.61,0,*54
1485205238.34,29537,10.56,73476.8,-9.17,-41.41,-41.55,0,*50
1485205239.61,29538,10.56,73478.8,-9.15,-41.35,-41.41,0,*5B
1485205240.88,29539,10.56,73480.8,-9.15,-41.41,-41.55,0,*5C
1485205242.17,29540,10.56,73480.3,-9.15,-41.35,-41.35,0,*57
1485205243.47,29541,10.56,73478.8,-9.17,-41.35,-41.35,0,*54
1485205244.75,29542,10.56,73482.8,-9.15,-41.55,-41.81,0,*5C
1485205245.99,29543,10.56,73478.8,-9.17,-41.61,-41.61,0,*56
1485205247.26,29544,10.56,73480.8,-9.15,-41.55,-41.41,0,*56
1485205248.53,29545,10.56,73476.8,-9.17,-41.41,-41.55,0,*55
1485205249.74,29546,10.56,73478.8,-9.19,-41.49,-41.49,0,*5D
1485205250.95,29547,10.56,73480.0,-9.19,-41.29,-41.41,0,*52
1485205252.16,29548,10.56,73478.8,-9.19,-41.49,-41.61,0,*59
1485205253.38,29549,10.56,73478.3,-9.19,-41.11,-41.11,0,*52
1485205254.63,29550,10.56,73476.8,-9.15,-41.03,-41.03,0,*56
1485205255.88,29551,10.56,73480.3,-9.17,-41.03,-41.03,0,*55
1485205257.15,29552,10.56,73480.0,-9.17,-41.35,-41.41,0,*55
1485205258.42,29553,10.56,73478.8,-9.17,-41.41,-41.55,0,*52
1485205259.65,29554,10.56,73482.0,-9.17,-41.41,-41.61,0,*52
1485205260.92,29555,10.56,73480.3,-9.17,-41.55,-41.61,0,*56
1485205262.13,29556,10.56,73476.8,-9.19,-41.49,-41.61,0,*56
1485205263.43,29557,10.56,73482.5,-9.17,-41.35,-41.55,0,*55
1485205264.69,29558,10.56,73480.3,-9.17,-41.35,-41.41,0,*5F
1485205265.99,29559,10.56,73480.3,-9.15,-41.23,-41.35,0,*58
1485205267.26,29560,10.56,73478.8,-9.17,-41.23,-41.41,0,*53
1485205268.55,29561,10.56,73478.8,-9.15,-41.35,-41.35,0,*54
1485205269.82,29562,10.56,73480.5,-9.17,-41.35,-41.41,0,*56
1485205271.09,29563,10.56,73480.0,-9.17,-41.23,-41.41,0,*50
1485205272.36,29564,10.56,73478.8,-9.17,-41.17,-41.23,0,*54
1485205273.65,29565,10.56,73476.8,-9.17,-41.23,-41.23,0,*52
1485205274.92,29566,10.56,73478.0,-9.17,-41.41,-41.55,0,*54
1485205276.19,29567,10.56,73480.8,-9.17,-41.17,-41.23,0,*57
1485205277.43,29568,10.56,73476.3,-9.17,-41.41,-41.41,0,*5F
1485205278.7,29569,10.56,73480.8,-9.17,-41.41,-41.67,0,*5A
1485205279.97,29570,10.56,73480.8,-9.17,-41.41,-41.67,0,*52
1485205281.24,29571,10.56,73480.0,-9.15,-41.35,-41.41,0,*56
1485205282.51,29572,10.56,73482.5,-9.17,-41.03,-41.35,0,*51
1485205283.76,29573,10.56,73478.8,-9.19,-41.49,-41.67,0,*57
1485205284.99,29574,10.56,73480.0,-9.21,-41.49,-41.61,0,*5D
1485205286.24,29575,10.56,73476.3,-9.19,-41.23,-41.41,0,*59
1485205287.45,29576,10.56,73478.8,-9.19,-41.29,-41.29,0,*5E
1485205288.66,29577,10.56,73480.8,-9.19,-41.29,-41.49,0,*59
1485205289.87,29578,10.56,73478.5,-9.19,-41.49,-41.49,0,*50
1485205291.08,29579,10.56,73480.5,-9.19,-41.29,-41.41,0,*5F
1485205292.3,29580,10.56,73478.3,-9.19,-41.11,-41.29,0,*5C
1485205293.54,29581,10.56,73482.5,-9.19,-40.91,-41.23,0,*5E
1485205294.79,29582,10.56,73482.5,-9.19,-41.11,-41.23,0,*54
1485205296.0,29583,10.56,73482.0,-9.19,-41.41,-41.49,0,*5C
1485205297.26,29584,10.56,73476.5,-9.17,-41.55,-41.61,0,*5A
1485205298.51,29585,10.56,73476.5,-9.15,-41.03,-41.17,0,*5B
1485205299.77,29586,10.56,73478.8,-9.15,-41.17,-41.23,0,*5A
1485205301.04,29587,10.56,73482.0,-9.17,-41.17,-41.35,0,*5E
1485205302.33,29588,10.56,73476.8,-9.17,-41.23,-41.35,0,*56
1485205303.63,29589,10.56,73476.5,-9.15,-41.23,-41.35,0,*55
1485205304.86,29590,10.56,73478.5,-9.15,-41.17,-41.17,0,*5A
1485205306.13,29591,10.56,73476.5,-9.17,-41.17,-41.35,0,*59
1485205307.39,29592,10.56,73478.0,-9.17,-40.97,-41.17,0,*53
1485205308.66,29593,10.56,73478.8,-9.17,-41.17,-41.35,0,*5B
1485205309.96,29594,10.56,73478.0,-9.17,-41.23,-41.55,0,*5D
1485205311.24,29595,10.56,73478.5,-9.17,-41.55,-41.81,0,*54
1485205312.54,29596,10.56,73480.3,-9.17,-41.55,-41.67,0,*5F
1485205313.78,29597,10.56,73478.3,-9.17,-41.41,-41.61,0,*5D
1485205315.04,29598,10.56,73480.8,-9.17,-41.81,-41.87,0,*56
1485205316.26,29599,10.56,73480.0,-9.19,-41.61,-41.87,0,*57
1485205317.51,29600,10.56,73478.5,-9.19,-41.23,-41.29,0,*56
1485205318.75,29601,10.56,73478.0,-9.19,-41.11,-41.23,0,*5C
1485205319.96,29602,10.56,73482.0,-9.19,-41.41,-41.61,0,*5C
1485205321.18,29603,10.56,73482.0,-9.19,-41.41,-41.41,0,*5F
1485205322.43,29604,10.56,73482.0,-9.19,-41.03,-41.23,0,*5A
1485205323.67,29605,10.56,73478.5,-9.19,-40.85,-41.11,0,*55
1485205324.94,29606,10.56,73476.8,-9.17,-41.17,-41.23,0,*53
1485205326.2,29607,10.56,73476.3,-9.17,-41.17,-41.35,0,*55
1485205327.5,29608,10.56,73480.5,-9.17,-41.23,-41.35,0,*5D
1485205328.77,29609,10.56,73478.3,-9.17,-40.97,-41.03,0,*57
1485205330.04,29610,10.56,73480.3,-9.17,-40.85,-41.03,0,*5C
1485205331.31,29611,10.56,73480.0,-9.17,-41.41,-41.55,0,*57
1485205332.54,29612,10.56,73478.5,-9.15,-41.61,-41.61,0,*53
1485205333.79,29613,10.56,73478.8,-9.17,-41.61,-41.87,0,*58
1485205335.0,29614,10.56,73482.3,-9.19,-41.49,-41.49,0,*59
1485205336.3,29615,10.56,73476.8,-9.17,-41.23,-41.23,0,*56
1485205337.57,29616,10.56,73478.0,-9.17,-41.03,-41.23,0,*57
1485205338.8,29617,10.56,73476.0,-9.17,-41.41,-41.61,0,*56
1485205340.07,29618,10.56,73478.5,-9.17,-41.35,-41.41,0,*58
1485205341.34,29619,10.56,73478.8,-9.15,-40.85,-41.03,0,*57
1485205342.59,29620,10.56,73476.3,-9.15,-41.03,-41.03,0,*52
1485205343.86,29621,10.56,73482.8,-9.17,-41.41,-41.55,0,*54
1485205345.1,29622,10.56,73478.5,-9.15,-41.03,-41.17,0,*55
1485205346.37,29623,10.56,73480.0,-9.17,-41.35,-41.61,0,*52
1485205347.63,29624,10.56,73480.3,-9.17,-41.35,-41.61,0,*55
1485205348.9,29625,10.56,73478.0,-9.17,-41.35,-41.41,0,*56
1485205350.2,29626,10.56,73478.5,-9.15,-41.23,-41.35,0,*53
1485205351.47,29627,10.56,73476.3,-9.17,-40.97,-41.03,0,*5B
1485205352.76,29628,10.56,73476.5,-9.17,-40.79,-40.97,0,*58
1485205354.05,29629,10.56,73478.5,-9.15,-40.59,-40.85,0,*5A
1485205355.31,29630,10.56,73476.8,-9.15,-40.85,-41.17,0,*59
1485205356.58,29631,10.56,73478.0,-9.15,-40.85,-41.03,0,*5D
1485205357.82,29632,10.56,73478.0,-9.15,-41.03,-41.17,0,*54
1485205359.09,29633,10.56,73478.8,-9.15,-41.17,-41.23,0,*57
1485205360.35,29634,10.56,73478.0,-9.15,-40.97,-41.17,0,*5E
1485205361.6,29635,10.56,73480.8,-9.15,-41.03,-41.03,0,*56
1485205362.86,29636,10.56,73478.0,-9.15,-40.97,-41.17,0,*5C
1485205364.11,29637,10.56,73476.8,-9.15,-41.03,-41.17,0,*51
1485205365.35,29638,10.56,73478.8,-9.15,-41.03,-41.17,0,*5E
1485205366.64,29639,10.56,73474.0,-9.15,-41.23,-41.23,0,*5A
1485205367.88,29640,10.56,73478.5,-9.15,-41.41,-41.41,0,*54
1485205369.1,29641,10.56,73476.5,-9.13,-41.11,-41.17,0,*55
1485205370.37,29642,10.56,73478.0,-9.13,-41.35,-41.35,0,*50
1485205371.6,29643,10.56,73476.3,-9.13,-40.79,-41.11,0,*5E
1485205372.82,29644,10.56,73476.3,-9.13,-41.17,-41.17,0,*56
1485205374.03,29645,10.56,73478.5,-9.13,-41.17,-41.29,0,*5A
1485205375.29,29646,10.56,73476.5,-9.15,-41.17,-41.35,0,*52
1485205376.59,29647,10.56,73478.5,-9.15,-41.23,-41.23,0,*53
1485205377.85,29648,10.56,73476.8,-9.11,-40.97,-41.29,0,*5C
1485205379.07,29649,10.56,73478.0,-9.13,-41.11,-41.17,0,*5D
1485205380.31,29650,10.56,73478.0,-9.13,-41.29,-41.35,0,*5E
1485205381.52,29651,10.56,73478.3,-9.13,-41.29,-41.29,0,*52
1485205382.72,29652,10.56,73478.0,-9.13,-41.29,-41.49,0,*57
1485205384.0,29653,10.56,73478.0,-9.11,-40.91,-40.97,0,*54
1485205385.24,29654,10.56,73476.8,-9.13,-40.79,-40.91,0,*51
1485205386.48,29655,10.56,73474.0,-9.11,-41.17,-41.29,0,*59
1485205387.69,29656,10.56,73480.0,-9.13,-41.29,-41.49,0,*53
1485205388.9,29657,10.56,73474.5,-9.13,-41.17,-41.29,0,*59
1485205390.17,29658,10.56,73478.5,-9.11,-40.97,-41.11,0,*56
1485205391.47,29659,10.56,73478.5,-9.11,-40.97,-40.97,0,*58
1485205392.69,29660,10.56,73476.3,-9.13,-40.91,-41.17,0,*5F
1485205393.93,29661,10.56,73476.3,-9.11,-41.11,-41.17,0,*55
1485205395.17,29662,10.56,73476.3,-9.13,-41.35,-41.49,0,*59
1485205396.41,29663,10.56,73476.8,-9.13,-41.35,-41.61,0,*52
1485205397.64,29664,10.56,73478.8,-9.11,-41.49,-41.61,0,*5C
1485205398.88,29665,10.56,73478.3,-9.11,-41.29,-41.49,0,*51
1485205400.15,29666,10.56,73478.3,-9.13,-41.35,-41.55,0,*50
1485205401.39,29667,10.56,73482.0,-9.13,-41.11,-41.35,0,*51
1485205402.6,29668,10.56,73478.0,-9.13,-41.11,-41.17,0,*5E
1485205403.87,29669,10.56,73482.8,-9.11,-41.17,-41.35,0,*5B
1485205405.11,29670,10.56,73476.0,-9.13,-40.97,-41.17,0,*58
1485205406.35,29671,10.56,73476.0,-9.11,-40.53,-40.91,0,*5C
1485205407.56,29672,10.56,73474.8,-9.13,-41.17,-41.29,0,*5E
1485205408.8,29673,10.56,73478.3,-9.13,-40.97,-41.17,0,*5B
1485205410.02,29674,10.56,73476.3,-9.13,-41.11,-41.29,0,*5E
1485205411.28,29675,10.56,73478.5,-9.11,-40.97,-41.11,0,*59
1485205412.53,29676,10.56,73478.3,-9.11,-40.73,-40.91,0,*59
1485205413.8,29677,10.56,73476.8,-9.11,-40.59,-40.91,0,*50
1485205415.08,29678,10.56,73478.5,-9.11,-40.91,-40.97,0,*5D
1485205416.32,29679,10.56,73478.0,-9.11,-40.91,-41.11,0,*53
1485205417.55,29680,10.56,73478.8,-9.09,-41.03,-41.11,0,*56
1485205418.8,29681,10.56,73476.8,-9.09,-41.03,-41.23,0,*56
1485205420.04,29682,10.56,73476.5,-9.09,-40.73,-40.85,0,*5E
1485205421.29,29683,10.56,73478.0,-9.09,-41.23,-41.11,0,*57
1485205422.56,29684,10.56,73476.0,-9.07,-41.23,-41.41,0,*5B
1485205423.77,29685,10.56,73478.3,-9.09,-41.29,-41.49,0,*56
1485205425.01,29686,10.56,73478.5,-9.09,-40.85,-40.91,0,*56
1485205426.25,29687,10.56,73476.3,-9.09,-40.65,-40.85,0,*5C
1485205427.5,29688,10.56,73474.8,-9.07,-41.03,-41.11,0,*50
1485205428.73,29689,10.56,73472.8,-9.07,-41.11,-41.29,0,*59
1485205429.95,29690,10.56,73476.5,-9.09,-40.53,-40.91,0,*5A
1485205431.17,29691,10.56,73478.5,-9.09,-40.73,-40.91,0,*59
1485205432.41,29692,10.56,73476.3,-9.09,-41.23,-41.29,0,*5C
1485205433.62,29693,10.56,73476.3,-9.09,-41.29,-41.49,0,*51
1485205434.84,29694,10.56,73478.8,-9.09,-41.49,-41.73,0,*59
1485205436.06,29695,10.56,73476.3,-9.09,-41.11,-41.29,0,*5A
1485205437.3,29696,10.56,73478.0,-9.09,-40.73,-40.85,0,*5B
1485205438.55,29697,10.56,73474.5,-9.09,-40.73,-40.85,0,*5A
1485205439.79,29698,10.56,73478.0,-9.09,-41.11,-41.23,0,*5D
1485205441.05,29699,10.56,73476.0,-9.07,-40.73,-40.85,0,*5A
1485205442.26,29700,10.56,73476.3,-9.09,-40.53,-40.65,0,*59
1485205443.49,29701,10.56,73474.8,-9.09,-40.91,-41.03,0,*57
1485205444.71,29702,10.56,73476.8,-9.09,-41.03,-41.11,0,*5D
1485205445.97,29703,10.56,73478.3,-9.07,-40.65,-40.85,0,*5F
1485205447.21,29704,10.56,73478.8,-9.07,-41.03,-41.11,0,*55
1485205448.47,29705,10.56,73478.8,-9.05,-40.79,-40.85,0,*56
1485205449.74,29706,10.56,73478.3,-9.05,-40.79,-40.85,0,*55
1485205450.96,29707,10.56,73476.3,-9.09,-41.03,-41.29,0,*53
1485205452.2,29708,10.56,73476.3,-9.05,-40.97,-41.17,0,*51
1485205453.44,29709,10.56,73476.5,-9.05,-41.17,-41.35,0,*59
1485205454.71,29710,10.56,73476.3,-9.05,-40.85,-40.85,0,*51
1485205455.95,29711,10.56,73472.3,-9.05,-40.85,-41.03,0,*5F
1485205457.24,29712,10.56,73474.8,-9.07,-41.23,-41.23,0,*51
1485205458.48,29713,10.56,73476.0,-9.09,-41.29,-41.23,0,*54
1485205459.75,29714,10.56,73478.0,-9.07,-41.23,-41.29,0,*5D
1485205460.97,29715,10.56,73474.3,-9.07,-41.29,-41.49,0,*50
1485205462.24,29716,10.56,73478.5,-9.07,-41.23,-41.41,0,*51
1485205463.46,29717,10.56,73480.8,-9.09,-40.73,-40.91,0,*56
1485205464.7,29718,10.56,73478.8,-9.05,-40.85,-41.03,0,*56
1485205465.95,29719,10.56,73476.8,-9.05,-40.85,-41.03,0,*57
1485205467.18,29720,10.56,73474.8,-9.05,-41.23,-41.49,0,*5E
1485205468.42,29721,10.56,73478.8,-9.05,-41.23,-41.61,0,*55
1485205469.66,29722,10.56,73478.8,-9.05,-41.23,-41.61,0,*56
1485205470.89,29723,10.56,73478.5,-9.07,-41.29,-41.49,0,*55
1485205472.15,29724,10.56,73476.0,-9.07,-40.85,-41.03,0,*5B
1485205473.39,29725,10.56,73476.8,-9.07,-41.11,-41.29,0,*5E
1485205474.62,29726,10.56,73478.3,-9.07,-41.11,-41.29,0,*5D
1485205475.84,29727,10.56,73478.5,-9.05,-41.03,-41.17,0,*50
1485205477.08,29728,10.56,73476.3,-9.05,-40.97,-41.17,0,*53
1485205478.32,29729,10.56,73476.0,-9.05,-40.41,-40.65,0,*5D
1485205479.61,29730,10.56,73476.0,-9.03,-40.41,-40.79,0,*5E
1485205480.87,29731,10.56,73478.8,-9.03,-40.85,-41.03,0,*5B
1485205482.12,29732,10.56,73482.0,-9.05,-41.17,-41.35,0,*51
1485205483.39,29733,10.56,73474.0,-9.05,-41.35,-41.35,0,*50
1485205484.64,29734,10.56,73472.0,-9.05,-40.79,-40.79,0,*57
1485205485.88,29735,10.56,73478.5,-9.03,-41.03,-41.17,0,*55
1485205487.15,29736,10.56,73478.8,-9.03,-40.85,-41.03,0,*5C
1485205488.4,29737,10.56,73474.3,-9.03,-40.65,-40.79,0,*5F
1485205489.67,29738,10.56,73472.5,-9.03,-40.97,-41.03,0,*51
1485205490.93,29739,10.56,73476.3,-9.03,-40.97,-41.17,0,*55
1485205492.18,29740,10.56,73478.3,-9.03,-41.03,-41.17,0,*57
1485205493.44,29741,10.56,73478.5,-9.03,-41.23,-41.41,0,*57
1485205494.71,29742,10.56,73474.3,-9.03,-41.35,-41.41,0,*53
1485205495.98,29743,10.56,73476.0,-9.03,-41.23,-41.41,0,*55
1485205497.22,29744,10.56,73476.3,-9.05,-41.23,-41.61,0,*56
1485205498.49,29745,10.56,73478.8,-9.03,-41.41,-41.67,0,*53
1485205499.75,29746,10.56,73476.3,-9.03,-41.35,-41.61,0,*55
1485205501.01,29747,10.56,73478.3,-9.05,-40.59,-40.79,0,*51
1485205502.25,29748,10.56,73476.5,-9.05,-40.97,-41.17,0,*55
1485205503.54,29749,10.56,73472.8,-9.03,-40.85,-40.85,0,*5B
1485205504.78,29750,10.56,73476.8,-9.03,-41.03,-41.17,0,*56
1485205506.05,29751,10.56,73476.5,-9.03,-40.97,-41.03,0,*5E
1485205507.27,29752,10.56,73472.8,-9.05,-41.03,-41.17,0,*52
1485205508.56,29753,10.56,73478.3,-9.03,-40.85,-40.97,0,*53
1485205509.78,29754,10.56,73476.0,-9.05,-41.03,-41.17,0,*54
1485205511.05,29755,10.56,73476.3,-9.03,-41.03,-41.23,0,*54
1485205512.34,29756,10.56,73474.8,-9.03,-40.79,-40.97,0,*55
1485205513.61,29757,10.56,73472.8,-9.03,-40.97,-41.03,0,*58
1485205514.85,29758,10.56,73476.5,-8.99,-40.73,-40.91,0,*55
1485205516.12,29759,10.56,73478.0,-8.99,-40.79,-40.79,0,*58
1485205517.41,29760,10.5,73474.3,-9.03,-40.79,-40.97,0,*50
1485205518.71,29761,10.56,73478.0,-9.03,-41.23,-41.35,0,*56
1485205519.97,29762,10.56,73476.3,-8.99,-41.17,-41.35,0,*50
1485205521.25,29763,10.56,73476.3,-8.99,-40.79,-40.97,0,*51
1485205522.48,29764,10.56,73478.5,-8.99,-40.53,-40.73,0,*54
1485205523.72,29765,10.56,73476.8,-8.99,-40.91,-41.11,0,*5E
1485205524.99,29766,10.56,73476.0,-8.99,-40.91,-40.97,0,*52
1485205526.23,29767,10.56,73472.5,-8.99,-40.73,-40.91,0,*59
1485205527.49,29768,10.56,73476.0,-8.99,-40.97,-41.11,0,*55
1485205528.78,29769,10.56,73478.5,-8.99,-40.79,-40.97,0,*5B
1485205530.04,29770,10.56,73472.8,-8.97,-40.79,-40.97,0,*5D
1485205531.28,29771,10.56,73474.8,-8.99,-40.73,-40.91,0,*5E
1485205532.54,29772,10.56,73474.3,-8.97,-40.79,-40.97,0,*5F
1485205533.75,29773,10.56,73476.0,-8.97,-41.17,-41.29,0,*53
1485205534.98,29774,10.56,73474.3,-8.99,-41.11,-41.29,0,*5C
1485205536.24,29775,10.56,73478.0,-8.99,-40.97,-41.11,0,*59
1485205537.45,29776,10.5,73472.5,-8.97,-41.17,-41.29,0,*56
1485205538.69,29777,10.56,73476.5,-8.99,-41.17,-41.29,0,*59
1485205539.92,29778,10.56,73478.5,-8.97,-41.29,-41.55,0,*5E
1485205541.15,29779,10.56,73476.5,-8.97,-40.73,-40.79,0,*5E
1485205542.38,29780,10.56,73472.8,-8.97,-40.59,-40.73,0,*5A
1485205543.59,29781,10.56,73476.8,-8.97,-41.11,-41.17,0,*55
1485205544.8,29782,10.56,73478.0,-8.97,-41.11,-41.17,0,*56
1485205546.06,29783,10.56,73478.0,-8.99,-40.97,-41.17,0,*56
1485205547.3,29784,10.56,73476.3,-8.99,-41.17,-41.29,0,*55
1485205548.53,29785,10.56,73472.0,-8.97,-41.17,-41.35,0,*57
1485205549.8,29786,10.56,73472.8,-8.99,-41.35,-41.41,0,*59
1485205551.03,29787,10.56,73472.5,-8.97,-41.17,-41.35,0,*55
1485205552.27,29788,10.56,73478.3,-8.99,-41.11,-41.17,0,*52
1485205553.48,29789,10.56,73474.8,-8.97,-41.17,-41.29,0,*56
1485205554.71,29790,10.56,73476.5,-8.97,-41.29,-41.55,0,*58
1485205555.97,29791,10.56,73478.5,-8.99,-41.17,-41.35,0,*5C
1485205557.21,29792,10.56,73474.0,-8.97,-40.97,-41.29,0,*55
1485205558.46,29793,10.56,73478.8,-8.99,-41.29,-41.55,0,*55
1485205559.7,29794,10.56,73478.5,-8.97,-41.29,-41.55,0,*5C
1485205560.93,29795,10.56,73478.3,-8.97,-40.73,-40.79,0,*5C
1485205562.14,29796,10.56,73476.3,-8.97,-40.91,-41.11,0,*5C
1485205563.38,29797,10.56,73476.8,-8.97,-40.97,-41.29,0,*50
1485205564.61,29798,10.56,73474.5,-8.97,-40.73,-40.79,0,*51
1485205565.85,29799,10.56,73476.3,-8.97,-40.41,-40.73,0,*5B
1485205567.11,29800,10.56,73478.8,-8.97,-40.79,-40.97,0,*55
1485205568.36,29801,10.56,73474.8,-8.95,-40.91,-41.03,0,*5C
1485205569.62,29802,10.56,73476.0,-8.95,-40.73,-40.85,0,*5C
1485205570.88,29803,10.56,73472.8,-8.95,-40.85,-41.03,0,*5B
1485205572.13,29804,10.56,73474.3,-8.95,-40.91,-41.03,0,*59
1485205573.37,29805,10.56,73476.3,-8.95,-41.03,-41.11,0,*51
1485205574.63,29806,10.56,73474.5,-8.95,-41.11,-41.23,0,*50
1485205575.85,29807,10.56,73476.8,-8.93,-41.03,-41.11,0,*55
1485205577.06,29808,10.56,73476.0,-8.97,-41.17,-41.29,0,*50
1485205578.27,29809,10.56,73476.0,-8.97,-41.17,-41.41,0,*5F
1485205579.53,29810,10.56,73474.3,-8.95,-41.23,-41.49,0,*5A
1485205580.79,29811,10.56,73478.0,-8.95,-41.23,-41.29,0,*5D
1485205582.08,29812,10.5,73470.8,-8.95,-41.23,-41.35,0,*53
1485205583.34,29813,10.56,73478.8,-8.95,-41.29,-41.35,0,*58
1485205584.6,29814,10.56,73474.0,-8.95,-41.29,-41.55,0,*59
1485205585.86,29815,10.56,73478.8,-8.95,-41.29,-41.35,0,*5E
1485205587.15,29816,10.56,73476.0,-8.95,-41.23,-41.23,0,*50
1485205588.36,29817,10.56,73472.5,-8.97,-40.91,-41.11,0,*5A
1485205589.61,29818,10.56,73478.8,-8.97,-40.91,-40.97,0,*5A
1485205590.87,29819,10.56,73474.8,-8.95,-40.85,-41.11,0,*53
1485205592.13,29820,10.56,73474.0,-8.95,-40.65,-40.85,0,*5B
1485205593.39,29821,10.56,73472.3,-8.95,-41.11,-41.23,0,*55
1485205594.68,29822,10.56,73476.3,-8.95,-41.23,-41.35,0,*50
1485205595.91,29823,10.56,73476.3,-8.95,-41.29,-41.49,0,*50
1485205597.14,29824,10.56,73478.5,-8.95,-41.11,-41.29,0,*5A
1485205598.34,29825,10.56,73472.8,-8.93,-41.29,-41.49,0,*50
1485205599.58,29826,10.56,73474.8,-8.95,-41.49,-41.73,0,*5A
1485205600.82,29827,10.56,73480.3,-8.93,-41.11,-41.23,0,*55
1485205602.05,29828,10.56,73476.8,-8.95,-40.73,-40.91,0,*51
1485205603.31,29829,10.5,73472.3,-8.95,-41.11,-41.35,0,*5A
1485205604.6,29830,10.56,73476.0,-8.95,-41.23,-41.35,0,*53
1485205605.83,29831,10.56,73478.3,-8.95,-41.29,-41.49,0,*53
1485205607.06,29832,10.56,73478.0,-8.95,-41.29,-41.49,0,*50
1485205608.32,29833,10.56,73478.0,-8.95,-41.35,-41.49,0,*5C
1485205609.58,29834,10.56,73480.0,-8.95,-41.11,-41.23,0,*51
1485205610.85,29835,10.56,73476.5,-8.95,-41.03,-41.35,0,*54
1485205612.1,29836,10.56,73478.5,-8.95,-41.11,-41.35,0,*54
1485205613.34,29837,10.56,73472.0,-8.95,-41.11,-41.29,0,*58
1485205614.58,29838,10.56,73472.0,-8.95,-41.03,-41.11,0,*5F
1485205615.82,29839,10.56,73476.0,-8.95,-41.03,-41.11,0,*5E
1485205617.08,29840,10.56,73476.8,-8.95,-41.11,-41.35,0,*55
1485205618.32,29841,10.56,73474.0,-8.95,-41.03,-41.11,0,*51
1485205619.58,29842,10.56,73478.3,-8.95,-41.11,-41.23,0,*50
1485205620.82,29843,10.56,73476.5,-8.95,-40.91,-41.11,0,*59
1485205622.08,29844,10.56,73474.0,-8.95,-41.23,-41.49,0,*5B
1485205623.33,29845,10.56,73476.8,-8.93,-41.23,-41.29,0,*5A
1485205624.58,29846,10.56,73476.3,-8.95,-41.29,-41.55,0,*5E
1485205625.85,29847,10.56,73478.3,-8.95,-40.85,-41.03,0,*5B
1485205627.07,29848,10.56,73476.5,-8.95,-40.53,-40.73,0,*59
1485205628.34,29849,10.56,73474.3,-8.95,-41.03,-41.23,0,*58
1485205629.58,29850,10.56,73476.8,-8.93,-41.11,-41.35,0,*52
1485205630.8,29851,10.56,73476.5,-8.93,-40.91,-41.03,0,*5F
1485205632.06,29852,10.56,73476.5,-8.95,-41.11,-41.23,0,*51
1485205633.28,29853,10.56,73478.0,-8.93,-41.03,-41.29,0,*5F
1485205634.49,29854,10.56,73476.0,-8.93,-41.03,-41.29,0,*58
1485205635.7,29855,10.56,73476.8,-8.97,-41.29,-41.41,0,*5B
1485205636.96,29856,10.56,73474.0,-8.95,-41.49,-41.67,0,*58
1485205638.22,29857,10.56,73476.5,-8.95,-41.11,-41.23,0,*54
1485205639.49,29858,10.56,73476.8,-8.93,-41.23,-41.35,0,*5B
1485205640.78,29859,10.56,73476.3,-8.95,-41.23,-41.35,0,*5C
1485205642.04,29860,10.56,73476.3,-8.95,-41.11,-41.23,0,*50
1485205643.31,29861,10.56,73476.0,-8.93,-41.23,-41.35,0,*51
1485205644.6,29862,10.56,73474.0,-8.95,-41.35,-41.55,0,*55
1485205645.86,29863,10.56,73476.0,-8.95,-41.35,-41.49,0,*59
1485205647.12,29864,10.56,73472.5,-8.95,-41.23,-41.49,0,*59
1485205648.38,29865,10.56,73478.0,-8.95,-41.29,-41.55,0,*5F
1485205649.64,29866,10.56,73478.8,-8.95,-41.23,-41.49,0,*5B
1485205650.9,29867,10.5,73472.0,-8.95,-41.03,-41.23,0,*54
1485205652.14,29868,10.56,73476.3,-8.95,-41.11,-41.29,0,*52
1485205653.4,29869,10.56,73472.8,-8.95,-41.23,-41.49,0,*54
1485205654.69,29870,10.56,73478.0,-8.95,-41.23,-41.35,0,*57
1485205655.95,29871,10.56,73476.0,-8.95,-41.23,-41.29,0,*5B
1485205657.21,29872,10.56,73476.3,-8.95,-41.11,-41.35,0,*54
1485205658.47,29873,10.56,73474.3,-8.95,-41.49,-41.67,0,*5F
1485205659.77,29874,10.5,73474.8,-8.95,-41.35,-41.67,0,*53
1485205661.06,29875,10.56,73472.3,-8.95,-41.35,-41.55,0,*53
1485205662.32,29876,10.56,73478.0,-8.95,-41.23,-41.29,0,*5C
1485205663.56,29877,10.5,73472.0,-8.95,-41.03,-41.11,0,*54
1485205664.79,29878,10.56,73476.5,-8.95,-41.11,-41.49,0,*55
1485205666.09,29879,10.5,73474.3,-8.95,-41.35,-41.67,0,*5E
1485205667.38,29880,10.56,73478.3,-8.95,-41.23,-41.35,0,*58
1485205668.64,29881,10.56,73476.8,-8.95,-41.23,-41.29,0,*54
1485205669.91,29882,10.56,73474.8,-8.95,-41.49,-41.67,0,*51
1485205671.12,29883,10.56,73478.0,-8.97,-41.41,-41.61,0,*5C
1485205672.32,29884,10.56,73478.8,-8.97,-41.29,-41.29,0,*59
1485205673.58,29885,10.5,73474.8,-8.99,-41.17,-41.35,0,*56
1485205674.82,29886,10.56,73476.3,-8.97,-41.35,-41.41,0,*58
1485205676.05,29887,10.56,73474.0,-8.99,-41.29,-41.41,0,*5A
1485205677.29,29888,10.56,73474.0,-8.97,-41.29,-41.55,0,*5E
1485205678.5,29889,10.5,73468.5,-8.97,-41.17,-41.41,0,*57
1485205679.76,29890,10.5,73472.0,-8.99,-41.35,-41.61,0,*53
1485205681.05,29891,10.56,73478.3,-8.99,-41.35,-41.55,0,*55
1485205682.31,29892,10.56,73474.8,-8.99,-41.17,-41.35,0,*50
1485205683.52,29893,10.56,73474.5,-8.97,-41.11,-41.17,0,*59
1485205684.73,29894,10.56,73478.0,-8.97,-41.17,-41.29,0,*55
1485205685.97,29895,10.56,73474.8,-8.97,-41.17,-41.35,0,*59
1485205687.21,29896,10.5,73472.5,-8.97,-41.35,-41.41,0,*59
1485205688.44,29897,10.5,73474.3,-8.99,-41.29,-41.41,0,*5B
1485205689.67,29898,10.56,73478.3,-8.97,-41.55,-41.61,0,*53
1485205690.94,29899,10.56,73476.0,-8.97,-41.35,-41.55,0,*53
1485205692.2,29900,10.56,73478.0,-8.97,-41.55,-41.55,0,*54
1485205693.41,29901,10.56,73476.8,-8.97,-41.11,-41.17,0,*53
1485205694.62,29902,10.56,73476.5,-8.97,-41.29,-41.41,0,*58
1485205695.85,29903,10.5,73472.8,-8.97,-41.29,-41.55,0,*5C
1485205697.06,29904,10.5,73472.5,-8.97,-41.11,-41.29,0,*5B
1485205698.27,29905,10.56,73472.3,-8.97,-41.17,-41.17,0,*51
1485205699.48,29906,10.56,73476.8,-8.97,-41.17,-41.29,0,*5F